Home > Weather > Sandefjord > Past weeks

Flag for Norway Weather for the Past 2 Weeks in Sandefjord, Norway

Now
18 °F

Passing clouds.


Feels Like: 11 °F
Forecast: 20 / 33 °F
Wind: 5 mph from Northwest

Location: Torp

Current Time: Feb 14, 2016 at 5:03:58 AM

Latest Report: Feb 14, 2016 at 4:20 AM


Visibility: N/A

Pressure: 29.50 "Hg

Humidity: 93%

Dew point: 16 °F

Location of SandefjordLocation

Historic Weather in Sandefjord — Graph

°F

Sandefjord Temperature Yesterday

Maximum temperature yesterday: 27 °F (at 12:50 AM)
Minimum temperature yesterday: 16 °F (at 10:50 PM)
Average temperature yesterday: 24 °F

High & Low Weather Summary for the Past Weeks

 TemperatureHumidityPressure
High43 °F (Feb 6, 7:50 AM)100% (Jan 30, 10:50 PM)29.92 "Hg (Jan 30, 10:50 PM)
Low16 °F (Feb 13, 10:50 PM)38% (Feb 12, 1:50 PM)28.74 "Hg (Feb 2, 6:20 PM)
Average35 °F83%29.29 "Hg
* Reported Jan 30 3:20 AM — Feb 14 3:20 AM, Sandefjord, Weather by CustomWeather, © 2016

Note: Actual official high and low records may vary slightly from our data, if they occured in-between our weather recording intervals... More about our weather records

Advertising

Sandefjord Weather History for the Previous 24 Hours

 ConditionsComfort  
Time TempWeatherWind HumidityBarometerVisibility
3:20 AM
Sun, Feb 14
18 °FPassing clouds.5 mph100%29.50 "HgN/A
2:50 AM19 °FOvercast.3 mph93%29.50 "HgN/A
2:20 AM18 °FOvercast.5 mph93%29.50 "HgN/A
1:50 AM16 °FPassing clouds.3 mph100%29.50 "HgN/A
1:20 AM18 °FPassing clouds.3 mph93%29.50 "HgN/A
12:50 AM16 °FCold.3 mph100%29.50 "HgN/A
12:20 AM18 °FCold.3 mph100%29.50 "HgN/A
11:50 PM
Sat, Feb 13
16 °FCold.3 mph100%29.50 "HgN/A
11:20 PM16 °FCold.2 mph100%29.47 "HgN/A
10:50 PM16 °FClear.3 mph100%29.47 "Hg10 mi
10:20 PM19 °FClear.2 mph100%29.47 "Hg10 mi
9:50 PM19 °FClear.3 mph100%29.47 "Hg10 mi
9:20 PM21 °FClear.2 mph100%29.47 "Hg10 mi
8:57 PM19 °FClear.2 mph100%29.47 "Hg10 mi
8:20 PM19 °FClear.2 mph100%29.47 "Hg10 mi
7:50 PM21 °FClear.1 mph93%29.47 "Hg10 mi
7:20 PM21 °FClear.1 mph93%29.47 "Hg10 mi
6:50 PM23 °FPassing clouds.No wind86%29.45 "HgN/A
6:20 PM23 °FPassing clouds.1 mph86%29.45 "HgN/A
5:50 PM23 °FPassing clouds.1 mph86%29.45 "HgN/A
5:20 PM25 °FPassing clouds.2 mph86%29.45 "HgN/A
4:50 PM27 °FScattered clouds.2 mph80%29.45 "HgN/A
4:20 PM27 °FPartly sunny.1 mph80%29.45 "HgN/A
3:50 PM27 °FScattered clouds.2 mph86%29.45 "HgN/A
3:20 PM27 °FPartly sunny.2 mph80%29.45 "HgN/A
2:50 PM27 °FLight snow. Mostly cloudy.3 mph86%29.45 "Hg4 mi
2:20 PM27 °FLight mixture of precip. Scattered clouds.5 mph86%29.45 "HgN/A
1:50 PM27 °FLight mixture of precip. Scattered clouds.5 mph86%29.45 "HgN/A
1:20 PM27 °FLight mixture of precip. Scattered clouds.3 mph80%29.45 "HgN/A
12:50 PM27 °FScattered clouds.7 mph80%29.45 "HgN/A
12:20 PM27 °FPassing clouds.6 mph80%29.45 "HgN/A
11:50 AM27 °FPassing clouds.5 mph80%29.45 "HgN/A
11:20 AM27 °FPassing clouds.5 mph80%29.45 "HgN/A
10:50 AM27 °FPassing clouds.7 mph86%29.45 "HgN/A
10:20 AM27 °FPassing clouds.6 mph86%29.45 "HgN/A
9:50 AM25 °FPassing clouds.7 mph100%29.45 "HgN/A
9:20 AM23 °FPassing clouds.6 mph100%29.45 "HgN/A
8:50 AM23 °FSunny.6 mph100%29.45 "Hg10 mi
8:20 AM23 °FSunny.6 mph100%29.45 "Hg10 mi
7:50 AM25 °FPassing clouds.6 mph100%29.45 "Hg5 mi
7:20 AM25 °FLight snow. Passing clouds.9 mph100%29.45 "Hg5 mi
6:50 AM25 °FSnow flurries. Ice fog.8 mph100%29.45 "Hg2 mi
6:20 AM25 °FSnow flurries. Ice fog.9 mph100%29.45 "Hg3 mi
5:50 AM25 °FSnow flurries. Ice fog.8 mph100%29.45 "Hg2 mi
5:20 AM25 °FSleet. Ice fog.7 mph100%29.45 "Hg2 mi
Weather by CustomWeather, © 2016

See weather overviewHow to use our weather pages